カタログに戻る

DELTA 1 DEB

運用中PO
NORAD 42569·DEBRIS·🇺🇸 United States

打ち上げ Jul 23, 1972 から Vandenberg Space Force Base

Loading…

次のパス (今後24時間)

TLE

最新Source: Space-Track

元期: Sep 13, 2026, 18:11 UTC

1 42569U 72058KC  26256.75818532  .00002800  00000-0  32902-2 0  9996
2 42569  98.8961   6.0218 0347209 163.5079 197.7695 13.46063679613629

AllMySatでDELTA 1 DEBをリアルタイム追跡

Download on the App Store